Flag for France Weather past 2 weeks in Orléans, France

Now
52 °F

Fog.


Feels Like: 49 °F
Forecast: 50 / 67 °F
Wind: 8 mph from North

Location: Orleans Airport

Current Time: May 24, 2015 at 7:27:13 AM

Latest Report: May 24, 2015 at 7:00 AM


Visibility: 2 mi

Pressure: 30.12 "Hg

Humidity: 94%

Dew point: 50 °F

Location of OrléansLocation

Historic Weather in Orléans — Graph

°F

Orléans temperature yesterday

Maximum temperature yesterday: 70 °F (at 4:00 PM)
Minimum temperature yesterday: 46 °F (at 4:30 AM)
Average temperature yesterday: 59 °F

Past Weeks' High & Low Weather Summary

 TemperatureHumidityPressure
High82 °F (May 11, 4:00 PM)100% (May 12, 7:00 AM)30.39 "Hg (May 12, 7:00 AM)
Low36 °F (May 21, 6:00 AM)42% (May 11, 3:00 PM)29.80 "Hg (May 18, 6:30 PM)
Average56 °F74%30.14 "Hg
* Reported May 9 6:00 AM — May 24 6:30 AM, Orléans, Weather by CustomWeather, © 2015

Note: Actual official high and low records may vary slightly from our data, if they occured in-between our weather recording intervals... More about our weather records

Advertising

Orléans weather history for previous 24 hours

 ConditionsComfort  
Time TempWeatherWind HumidityBarometerVisibility
6:30 AM
Sun, May 24
52 °FFog.8 mph94%30.12 "Hg1 mi
6:00 AM52 °FFog.7 mph94%30.12 "Hg2 mi
5:30 AM52 °FFog.8 mph94%30.12 "Hg1 mi
5:00 AM52 °FFog.6 mph100%30.12 "Hg2 mi
4:30 AM54 °FFog.7 mph94%30.12 "Hg2 mi
4:00 AM54 °FFog.6 mph94%30.12 "Hg2 mi
3:30 AM55 °FFog.8 mph94%30.12 "Hg2 mi
3:00 AM55 °FFog.7 mph94%30.12 "Hg2 mi
2:30 AM55 °FFog.8 mph94%30.12 "Hg2 mi
2:00 AM55 °FFog.6 mph94%30.15 "Hg3 mi
1:30 AM55 °FFog.7 mph94%30.15 "Hg3 mi
1:00 AM55 °FClear.7 mph94%30.15 "Hg5 mi
12:30 AM55 °FClear.7 mph94%30.15 "Hg6 mi
12:00 AM57 °FClear.9 mph88%30.15 "HgN/A
11:30 PM
Sat, May 23
57 °FClear.7 mph88%30.15 "HgN/A
11:00 PM57 °FClear.7 mph88%30.15 "Hg6 mi
10:30 PM57 °FClear.5 mph88%30.15 "HgN/A
10:00 PM59 °FClear.7 mph82%30.12 "HgN/A
9:30 PM59 °FClear.8 mph82%30.12 "HgN/A
9:00 PM61 °FClear.10 mph83%30.12 "HgN/A
8:30 PM64 °FPassing clouds.14 mph73%30.12 "HgN/A
8:00 PM68 °FPartly sunny.17 mph64%30.12 "HgN/A
7:30 PM70 °FClear.14 mph53%30.12 "HgN/A
7:00 PM70 °FClear.12 mph43%30.12 "HgN/A
6:30 PM70 °FClear.9 mph46%30.12 "HgN/A
6:00 PM68 °FClear.12 mph49%30.12 "HgN/A
5:30 PM70 °FClear.10 mph46%30.12 "HgN/A
5:00 PM68 °FClear.10 mph53%30.12 "HgN/A
4:30 PM70 °FScattered clouds.9 mph53%30.12 "HgN/A
4:00 PM70 °FPartly sunny.10 mph50%30.12 "HgN/A
3:30 PM68 °FMore clouds than sun.10 mph49%30.15 "HgN/A
3:00 PM68 °FScattered clouds.8 mph49%30.15 "HgN/A
2:30 PM68 °FBroken clouds.8 mph53%30.15 "HgN/A
2:00 PM66 °FPartly sunny.8 mph60%30.15 "HgN/A
1:30 PM66 °FPartly sunny.6 mph64%30.18 "HgN/A
1:00 PM66 °FPartly sunny.7 mph60%30.18 "HgN/A
12:30 PM64 °FMostly cloudy.6 mph64%30.18 "HgN/A
12:00 PM63 °FBroken clouds.8 mph68%30.18 "HgN/A
11:30 AM61 °FPartly sunny.8 mph77%30.18 "HgN/A
11:00 AM59 °FOvercast.9 mph77%30.21 "HgN/A
10:30 AM57 °FOvercast.9 mph82%30.21 "HgN/A
10:00 AM57 °FOvercast.9 mph82%30.21 "HgN/A
9:30 AM57 °FOvercast.9 mph82%30.21 "HgN/A
9:00 AM55 °FLow clouds.9 mph88%30.21 "HgN/A
8:30 AM55 °FMostly cloudy.7 mph88%30.21 "Hg5 mi
8:00 AM54 °FFog.6 mph94%30.21 "Hg3 mi
7:30 AM52 °FOvercast.5 mph94%30.21 "Hg4 mi
7:00 AM48 °FClear.2 mph100%30.18 "Hg4 mi
Weather by CustomWeather, © 2015

See weather overviewHow to use our weather pages